Weather History for KOSU - November, 2012

Change the Weather History Date:

Friday, November 23, 2012

  Actual Average (KCMH) Record (KCMH)
Temperature  
Mean Temperature 42 °F 41 °F  
Max Temperature 53 °F 49 °F 72 °F (1931)
Min Temperature 30 °F 34 °F -1 °F (1880)
Degree Days  
Heating Degree Days 24 24  
Month to date heating degree days 444  
Since 1 July heating degree days 838  
Cooling Degree Days 0 0  
Month to date cooling degree days 0  
Year to date cooling degree days 1024  
Moisture  
Dew Point 32 °F    
Average Humidity 67    
Maximum Humidity 89    
Minimum Humidity 57    
Precipitation  
Precipitation 0.01 in 0.12 in 1.79 in (1891)
Month to date precipitation 2.46  
Year to date precipitation 35.60  
Snow  
Snow 0.00 in 0.00 in 1.40 in (2005)
Month to date snowfall 0.5  
Since 1 July snowfall 0.7  
Since 1 September snowfall 0.7  
Snow Depth -    
Sea Level Pressure  
Sea Level Pressure 29.99 in    
Wind  
Wind Speed 15 mph (WSW)    
Max Wind Speed 31 mph    
Max Gust Speed 45 mph    
Visibility 10 miles    
Events Rain , Snow    
T = Trace of Precipitation, MM = Missing Value Source: NWS Daily Summary

Daily Weather History Graph

Daily Weather History Graph

Search for Another Location

Airport or City:

Trip Planner

Search our weather history database for the weather conditions in past years. The results will help you decide how hot, cold, wet, or windy it might be!

Date:

Astronomy

Nov. 23, 2012 Rise Set
Actual Time 7:27 AM EST 5:10 PM EST
Civil Twilight 6:57 AM EST 5:39 PM EST
Nautical Twilight 6:24 AM EST 6:13 PM EST
Astronomical Twilight 5:51 AM EST 6:45 PM EST
Moon 2:24 PM EST (11/23) 2:45 AM EST (11/23)
Length of Visible Light 10h 42m
Length of Day
9h 43m
Waxing Gibbous, 79% of the Moon is Illuminated
Nov 23
Waxing Gibbous
Nov 28
Full
Dec 6
Last Quarter
Dec 13
New
Dec 20
First Quarter

Hourly Weather History & Observations

Time (EST) Temp. Windchill Dew Point Humidity Pressure Visibility Wind Dir Wind Speed Gust Speed Precip Events Conditions
12:53 AM 52.0 °F - 41.0 °F 66% 29.97 in 10.0 mi SW 13.8 mph - N/A   Clear
1:53 AM 52.0 °F - 39.9 °F 63% 29.95 in 10.0 mi SSW 10.4 mph - N/A   Scattered Clouds
2:53 AM 51.1 °F - 41.0 °F 68% 29.94 in 10.0 mi SSW 8.1 mph - N/A   Mostly Cloudy
3:53 AM 53.1 °F - 39.9 °F 61% 29.91 in 10.0 mi SSW 10.4 mph - N/A   Overcast
4:33 AM 53.6 °F - 41.0 °F 62% 29.91 in 10.0 mi SW 12.7 mph 18.4 mph N/A   Overcast
4:49 AM 53.6 °F - 41.0 °F 62% 29.90 in 10.0 mi SW 9.2 mph - N/A   Overcast
4:53 AM 53.1 °F - 41.0 °F 64% 29.90 in 10.0 mi SSW 10.4 mph - N/A   Overcast
5:53 AM 53.1 °F - 44.1 °F 71% 29.89 in 10.0 mi SW 9.2 mph - 0.00 in Rain Light Rain
6:41 AM 51.8 °F - 46.4 °F 82% 29.89 in 8.0 mi SW 9.2 mph - 0.01 in Rain Light Rain
6:53 AM 51.1 °F - 46.0 °F 83% 29.89 in 10.0 mi SW 11.5 mph - 0.01 in Rain Light Rain
7:53 AM 51.1 °F - 48.0 °F 89% 29.90 in 8.0 mi WSW 11.5 mph - 0.00 in   Overcast
8:24 AM 51.8 °F - 44.6 °F 76% 29.91 in 10.0 mi West 13.8 mph 25.3 mph N/A   Overcast
8:53 AM 46.9 °F - 39.0 °F 74% 29.93 in 10.0 mi West 17.3 mph - N/A   Mostly Cloudy
9:53 AM 42.1 °F 34.2 °F 35.1 °F 76% 29.94 in 10.0 mi West 16.1 mph 24.2 mph N/A   Overcast
10:53 AM 44.1 °F 35.4 °F 36.0 °F 73% 29.95 in 10.0 mi West 21.9 mph 27.6 mph N/A   Scattered Clouds
11:53 AM 45.0 °F 36.4 °F 33.1 °F 63% 29.94 in 10.0 mi West 23.0 mph 31.1 mph N/A   Scattered Clouds
12:29 PM 44.6 °F 36.4 °F 32.0 °F 61% 29.93 in 10.0 mi West 20.7 mph 33.4 mph N/A   Mostly Cloudy
12:53 PM 43.0 °F 33.5 °F 30.9 °F 62% 29.94 in 10.0 mi West 24.2 mph 35.7 mph N/A   Overcast
1:53 PM 41.0 °F 30.9 °F 27.0 °F 57% 29.94 in 10.0 mi West 24.2 mph 36.8 mph N/A   Overcast
2:53 PM 37.0 °F 26.4 °F 26.1 °F 65% 29.98 in 9.0 mi West 20.7 mph 32.2 mph 0.00 in Snow Light Snow
3:53 PM 36.0 °F 25.0 °F 25.0 °F 64% 30.01 in 9.0 mi WNW 20.7 mph 33.4 mph 0.00 in Snow Light Snow
4:20 PM 35.6 °F 24.0 °F 26.6 °F 70% 30.01 in 10.0 mi West 23.0 mph 31.1 mph 0.00 in   Overcast
4:53 PM 34.0 °F 20.1 °F 21.9 °F 61% 30.06 in 9.0 mi West 31.1 mph 44.9 mph 0.00 in Snow Light Snow
5:02 PM 33.8 °F 21.6 °F 21.2 °F 60% 30.05 in 9.0 mi West 23.0 mph 40.3 mph 0.00 in Snow Light Snow
5:23 PM 32.0 °F 18.6 °F 23.0 °F 69% 30.06 in 9.0 mi West 25.3 mph 34.5 mph 0.00 in Snow Light Snow
5:53 PM 32.0 °F 21.6 °F 21.9 °F 66% 30.10 in 9.0 mi WNW 15.0 mph 33.4 mph 0.00 in Snow Light Snow
6:21 PM 30.2 °F 18.1 °F 19.4 °F 64% 30.09 in 9.0 mi West 18.4 mph 25.3 mph 0.00 in   Overcast
6:53 PM 30.9 °F 18.7 °F 19.0 °F 61% 30.12 in 9.0 mi WNW 19.6 mph 28.8 mph 0.00 in   Overcast
7:53 PM 30.9 °F 20.2 °F 19.0 °F 61% 30.13 in 10.0 mi West 15.0 mph - N/A   Overcast
8:53 PM 30.9 °F 20.2 °F 19.0 °F 61% 30.14 in 10.0 mi West 15.0 mph - N/A   Overcast
9:53 PM 30.9 °F 20.2 °F 19.0 °F 61% 30.15 in 10.0 mi West 15.0 mph 20.7 mph N/A   Overcast
10:53 PM 30.9 °F 21.2 °F 19.9 °F 64% 30.13 in 10.0 mi West 12.7 mph - N/A   Overcast
11:53 PM 30.0 °F 19.5 °F 19.9 °F 66% 30.12 in 10.0 mi West 13.8 mph 21.9 mph N/A   Overcast